Location: Shepherdstown, WV
(39.4326°N, 77.8042°W)
Time: 13:09:50
(UTC-04:00)

Tiros 1 despin weight - Pass Details

Date: 08 August 2021
Orbit: 593 x 641 km, 48.2° (Epoch: 21 September)

Event Time Altitude Azimuth Distance (km) Brightness Sun altitude
Rises 13:34:49 0° 277° (W) 2,916 ? 66.2°
Reaches altitude 10° 13:37:21 10° 288° (WNW) 2,016 ? 66.1°
Maximum altitude 13:41:28 30° 350° (N) 1,142 ? 65.9°
Drops below altitude 10° 13:45:36 10° 52° (NE) 2,031 ? 65.7°
Sets 13:48:11 0° 64° (ENE) 2,942 ? 65.5°
